loading
|
Showing default

COSMOS 2575, 58929

Orbit data source: Space-Track

COSMOS 2575, 58929 is a payload satellite owned by MO RF (CIS) in LEO that was launched on Fri, 09 Feb 2024 UTC via a SOYUZ-2-1V launch vehicle from the Plesetsk Missile And Space Complex (PKMTR). Payloads include a variety of satellites, spacecraft, and rockets equipped with specific instruments for various scientific and technological missions. These include communications satellites like Starlink; space stations such as the ISS; scientific satellites like the Hubble; Earth observation satellites from companies like Planet Labs, Umbra, and HawkEye 360; GPS; miniature CubeSats for education and research; and military/defense satellites.

Next visibility unknown
Next conjunction unknown
Loading greatness...
COSMOS 2575 details
Identifier
58929, 2024-026A
Orbit
LEO
Last TLE update10 hours ago
Origin
Flag of CISMO RF (CIS)
ManufacturerVNIIEM
MissionOperational spacecraft
Bus & MotorEMKA, Unknown motor
Mass520 kg wet, ~500 kg dry
Launch date (UTC)
2024-02-09 (8 months ago)
Launch vehicle
SOYUZ-2-1V
Launch site
Plesetsk Missile And Space Complex (PKMTR)
Object type
Payload
Rocket body
Debris
Shape & HBRUnknown
Radar Cross SectionLarge (>1 m²)

Expand to show TLE details & history

TLE from 10 hours ago
0 COSMOS 2575
1 58929U 24026A   24288.17717914  .00124403  75767-5  36027-3 0  9990
2 58929  96.7090 182.3345 0006937 117.8088 242.3892 15.92975324 39223
Epoch: 2024-10-14T04:15Z
Definitive object data (Epoch: 2024-10-14T04:15:08.277Z)
Latitude-0.00006°
Longitude95.34196°
Altitude299.318 km
Speed7.727 km/s
True Right ascension12h 09m 20s
True Declination0° 00' 00"
Sunlit
Object was in daylight at TLE epoch
Predictive object data (real-time)
Latitude-76.89352°
Longitude-114.39746°
Altitude324.984 km
Speed7.71 km/s
Apparent Right ascension21h 14m 09s
Apparent Declination-58° 58' 04"
Sunlit
Object is in daylight
Predictive observer data (real-time)
Local Sidereal Time08:56:48
Azimuth186.788° SSW
Elevation-70.751°
Doppler factor1
Orbital elements
Apogee295.428 km
Perigee286.176 km
Semi-major axis6,668.939 km
Eccentricity0.0006937
Inclination96.709°
RAAN182.3345°
Arg. of periapsis117.8088°
True anomaly242.31879°
Mean anomaly242.3892°
Eccentric anomaly242.35399°
Mean motion3.98527 °/min
BSTAR0.00036027
Period90.33 mins
No data available
No data available
Other satellites on launch #26 in the year 2024 (2024-02-09 UTC)

COSMOS 2575 Visibility forecast

Observer location: 39.9160978°, -105.1181434

COSMOS 2575 is not visible in the next 10 days
Span
Click to sort rows by Start time (UTC) header in descending order
Start Az.
Max El. time (UTC)
Max El. Az.
Max El.
End time (UTC)
End Az.